Location: *
(48.8489°N, 2.3218°E)
Time: 19:34:30
(UTC+00:00)

Cosmos 2251 Rocket - Pass Details

Date: 23 August 2019
Orbit: 764 x 792 km, 74.0° (Epoch: 22 September)

Event Time Altitude Azimuth Distance (km) Brightness Sun altitude
Rises 23:30:33 0° 334° (NNW) 3,283 7.8 -29.7°
Reaches altitude 10° 23:32:58 10° 331° (NNW) 2,354 6.8 -29.7°
Enters shadow 23:37:12 52° 301° (WNW) 979 4.1 -29.8°
